User: anonymous
Location: Meetinghouse Hill
(42.7686°N, 71.7752°W)
Time: 12:25:37
(UTC-04:00)
Language:

Iridium 34 - Orbit

View from above orbital plane
View from above orbital plane
View from above satellite
View from above satellite

Ground track
Ground track

The orbit data is extracted from the following two-line orbital elements,

1 24969U 97056E   14209.43815201  .00000015  00000-0 -15744-5 0  8786
2 24969 086.3943 039.6744 0002149 103.9646 256.1789 14.34216637881353
Epoch (UTC): 28 July 2014 10:30:56
Eccentricity: 0.0002149
inclination: 86.3943°
perigee height: 776 km
apogee height: 779 km
right ascension of ascending node: 39.6744°
argument of perigee: 103.9646°
revolutions per day: 14.34216637
mean anomaly at epoch: 256.1789°
orbit number at epoch: 88135

The dashed part of the orbit path shows where the satellite is in the earth's shadow,  

DLR